Flag for U.S.A. Weather past 2 weeks in New City, New York, U.S.A.

Now
45 °F

Sunny.


Feels Like: 40 °F
Forecast: 31 / 61 °F
Wind: 9 mph from Northwest

Location: Westchester County Airport

Current Time: Apr 1, 2015 at 8:15:03 PM

Latest Report: Apr 1, 2015 at 7:56 PM


Visibility: 10 mi

Pressure: 30.15 "Hg

Humidity: 27%

Dew point: 13 °F

Location of New CityLocation

Historic Weather in New City — Graph

°F

New City temperature yesterday

Maximum temperature yesterday: 44 °F (at 12:56 PM)
Minimum temperature yesterday: 33 °F (at 10:56 PM)
Average temperature yesterday: 38 °F

Past Weeks' High & Low Weather Summary

 TemperatureHumidityPressure
High54 °F (Mar 26, 7:56 PM)97% (Mar 25, 10:56 PM)30.42 "Hg (Mar 25, 10:56 PM)
Low20 °F (Mar 23, 5:56 AM)18% (Mar 19, 5:56 PM)29.59 "Hg (Mar 26, 6:59 PM)
Average34 °F57%30.05 "Hg
* Reported Mar 17 6:56 PM — Apr 1 6:56 PM, New City, Weather by CustomWeather, © 2015

Note: Actual official high and low records may vary slightly from our data, if they occured in-between our weather recording intervals... More about our weather records

Advertising

New City weather history for previous 24 hours

 ConditionsComfort  
Time TempWeatherWind HumidityBarometerVisibility
6:56 PM
Wed, Apr 1
47 °FSunny.13 mph24%30.12 "Hg10 mi
5:56 PM49 °FSunny.14 mph21%30.09 "Hg10 mi
4:56 PM50 °FPassing clouds.15 mph22%30.06 "Hg10 mi
3:56 PM48 °FSunny.12 mph28%30.06 "Hg10 mi
2:56 PM45 °FPassing clouds.14 mph33%30.07 "Hg10 mi
1:56 PM44 °FPassing clouds.15 mph32%30.08 "Hg10 mi
12:56 PM44 °FSunny.16 mph27%30.07 "Hg10 mi
11:56 AM40 °FSunny.8 mph32%30.07 "Hg10 mi
10:56 AM37 °FSunny.7 mph41%30.07 "Hg10 mi
9:56 AM35 °FSunny.10 mph40%30.06 "Hg10 mi
8:56 AM34 °FSunny.9 mph42%30.03 "Hg10 mi
7:56 AM32 °FSunny.9 mph50%30.00 "Hg10 mi
6:56 AM29 °FClear.13 mph64%29.97 "Hg10 mi
5:56 AM29 °FClear.13 mph66%29.93 "Hg10 mi
4:56 AM30 °FClear.13 mph72%29.89 "Hg10 mi
3:56 AM32 °FPassing clouds.13 mph79%29.87 "Hg10 mi
2:56 AM32 °FClear.15 mph85%29.84 "Hg10 mi
1:56 AM32 °FClear.13 mph92%29.83 "Hg10 mi
12:56 AM32 °FClear.9 mph92%29.81 "Hg10 mi
11:56 PM
Tue, Mar 31
33 °FClear.8 mph92%29.81 "Hg10 mi
10:56 PM33 °FPassing clouds.7 mph92%29.80 "Hg10 mi
9:56 PM34 °FOvercast.9 mph92%29.80 "Hg10 mi
8:56 PM34 °FFog.No wind97%29.78 "Hg5 mi
Weather by CustomWeather, © 2015

See weather overviewHow to use our weather pages